Location: Most
(50.5133°N, 13.6207°E)
Time: 00:20:36
(UTC+01:00)

ZACube-1 - Pass Details

Date: 11 December 2021
Orbit: 582 x 665 km, 97.6° (Epoch: 24 January)

Event Time Altitude Azimuth Distance (km) Brightness Sun altitude
Rises 17:05:33 0° 223° (SW) 2,901 ? -9.6°
Reaches altitude 10° 17:09:29 10° 259° (W) 2,025 ? -10.2°
Maximum altitude 17:10:43 11° 276° (W) 1,968 ? -10.4°
Drops below altitude 10° 17:11:57 10° 292° (WNW) 2,044 ? -10.5°
Sets 17:16:01 0° 328° (NNW) 2,983 ? -11.1°
